{"data":{"norad_id":60110,"intl_designator":"2024-117V","name":"STARLINK-32001","alt_names":[],"object_type":"PAYLOAD","status":"ACTIVE","operator":null,"country":"US","launch_date":"2024-06-23","launch_site_code":"AFETR","launch_vehicle":null,"mission":null,"orbit_class":"UNKNOWN","rcs_meters":null,"size_class":null,"mass_kg":null,"dimensions":null,"purposes":["comms"],"wikipedia_slug":null,"has_3d_model":false,"image_url":null,"decayed_at":null,"tle_current":{"epoch":"2026-05-25T03:07:51.165120Z","epoch_age_seconds":63856,"freshness":"FRESH","line1":"1 60110U 24117V   26145.13045330 -.00000985  00000+0 -21151-4 0  9997","line2":"2 60110  53.1620  41.7957 0001150 122.3536 237.7576 15.30187924108599","mean_motion":15.30187924,"eccentricity":0.000115,"inclination_deg":53.162,"raan_deg":41.7957,"arg_perigee_deg":122.3536,"mean_anomaly_deg":237.7576,"bstar":-2.1151e-5,"rev_number":10859,"period_min":94.106088370882,"perigee_km":474.4629867812,"apogee_km":476.03926605028,"semimajor_km":6853.3881264157,"source":"CELESTRAK","updated_at":"2026-05-25T13:38:19.164154Z"}}}